| time (UTC) | temp F | wind direction | speed knots | gust knots | rain 1hr in | rain 24hr in | rain mn in | humidity % | barometer mb |
| 20260505040025 | 49 | 98 | 0.0 | 2.6 | 0.00 | 0.04 | 0.04 | 50 | 1002.7 |
| 20260505034521 | 49 | 124 | 0.9 | 3.5 | 0.00 | 0.04 | 0.04 | 50 | 1002.6 |
| 20260505033021 | 50 | 137 | 0.9 | 2.6 | 0.00 | 0.04 | 0.04 | 51 | 1002.5 |
| 20260505031520 | 50 | 131 | 0.9 | 2.6 | 0.00 | 0.04 | 0.04 | 53 | 1002.3 |
| 20260505030018 | 51 | 214 | 0.9 | 2.6 | 0.00 | 0.04 | 0.04 | 50 | 1002.3 |
| 20260505024518 | 52 | 149 | 0.0 | 1.7 | 0.00 | 0.04 | 0.04 | 50 | 1002.0 |
| 20260505023018 | 54 | 151 | 0.0 | 2.6 | 0.00 | 0.04 | 0.04 | 47 | 1001.7 |
| 20260505021517 | 55 | 158 | 0.9 | 2.6 | 0.00 | 0.04 | 0.04 | 46 | 1001.3 |
| 20260505020017 | 58 | 107 | 0.0 | 3.5 | 0.00 | 0.04 | 0.04 | 42 | 1001.3 |
| 20260505014516 | 59 | 125 | 0.0 | 1.7 | 0.00 | 0.04 | 0.04 | 39 | 1001.3 |
| 20260505013015 | 61 | 131 | 0.9 | 5.2 | 0.00 | 0.04 | 0.04 | 34 | 1001.1 |
| 20260505011517 | 61 | 123 | 0.9 | 3.5 | 0.00 | 0.04 | 0.04 | 34 | 1001.3 |
| 20260505010014 | 62 | 229 | 0.0 | 3.5 | 0.00 | 0.04 | 0.04 | 34 | 1001.2 |
| 20260505004513 | 63 | 32 | 0.0 | 1.7 | 0.00 | 0.04 | 0.04 | 34 | 1001.3 |
| 20260505003020 | 63 | 118 | 0.0 | 6.1 | 0.00 | 0.04 | 0.04 | 36 | 1001.3 |
| 20260505001512 | 63 | 195 | 3.5 | 7.0 | 0.00 | 0.04 | 0.04 | 35 | 1001.2 |
| 20260505000011 | 64 | 72 | 0.0 | 1.7 | 0.00 | 0.04 | 0.04 | 39 | 1001.2 |
| 20260504234511 | 65 | 131 | 0.0 | 3.5 | 0.00 | 0.04 | 0.04 | 39 | 1001.1 |
| 20260504233010 | 64 | 148 | 1.7 | 5.2 | 0.00 | 0.04 | 0.04 | 41 | 1001.0 |
| 20260504231509 | 64 | 89 | 0.9 | 4.3 | 0.00 | 0.04 | 0.04 | 42 | 1001.0 |
| 20260504230009 | 62 | 77 | 4.3 | 7.8 | 0.00 | 0.04 | 0.04 | 45 | 1000.8 |
| 20260504224507 | 60 | 100 | 3.5 | 7.0 | 0.01 | 0.04 | 0.04 | 52 | 1001.2 |
| 20260504223007 | 59 | 103 | 2.6 | 8.7 | 0.01 | 0.04 | 0.04 | 55 | 1001.3 |
| 20260504221510 | 58 | 59 | 2.6 | 5.2 | 0.01 | 0.04 | 0.04 | 57 | 1001.4 |
| 20260504220006 | 57 | 53 | 1.7 | 5.2 | 0.01 | 0.04 | 0.04 | 62 | 1001.5 |
| 20260504214504 | 56 | 128 | 0.0 | 4.3 | 0.02 | 0.03 | 0.03 | 66 | 1001.8 |
| 20260504213003 | 56 | 60 | 3.5 | 8.7 | 0.02 | 0.03 | 0.03 | 63 | 1001.7 |
| 20260504211502 | 57 | 127 | 6.1 | 12.2 | 0.02 | 0.03 | 0.03 | 61 | 1001.7 |
| 20260504210001 | 57 | 122 | 4.3 | 8.7 | 0.02 | 0.03 | 0.03 | 61 | 1002.1 |
| 20260504204619 | 59 | 183 | 0.0 | 2.6 | 0.01 | 0.01 | 0.01 | 56 | 1001.9 |
| 20260504203109 | 61 | 284 | 0.9 | 2.6 | 0.01 | 0.01 | 0.01 | 47 | 1002.0 |
| 20260504201558 | 60 | 38 | 1.7 | 3.5 | 0.01 | 0.01 | 0.01 | 45 | 1002.0 |
| 20260504200058 | 59 | 117 | 0.0 | 3.5 | 0.01 | 0.01 | 0.01 | 53 | 1002.1 |
| 20260504194605 | 62 | 277 | 2.6 | 10.4 | 0.00 | 0.00 | 0.00 | 49 | 1002.5 |
| 20260504193057 | 66 | 198 | 2.6 | 8.7 | 0.00 | 0.00 | 0.00 | 39 | 1002.2 |
| 20260504191554 | 64 | 146 | 3.5 | 10.4 | 0.00 | 0.00 | 0.00 | 41 | 1002.1 |
| 20260504190127 | 65 | 202 | 1.7 | 7.0 | 0.00 | 0.00 | 0.00 | 38 | 1002.2 |
| 20260504184553 | 67 | 269 | 2.6 | 7.0 | 0.00 | 0.00 | 0.00 | 34 | 1002.3 |
| 20260504183050 | 65 | 62 | 1.7 | 3.5 | 0.00 | 0.00 | 0.00 | 40 | 1002.5 |
| 20260504180038 | 64 | 262 | 0.0 | 4.3 | 0.00 | 0.00 | 0.00 | 41 | 1002.9 |
| 20260504174535 | 63 | 310 | 0.9 | 5.2 | 0.00 | 0.00 | 0.00 | 41 | 1003.2 |
| 20260504173035 | 68 | 158 | 0.9 | 7.0 | 0.00 | 0.00 | 0.00 | 39 | 1003.4 |
| 20260504171531 | 64 | 120 | 0.9 | 6.1 | 0.00 | 0.00 | 0.00 | 40 | 1003.5 |
| 20260504081537 | 52 | 107 | 1.7 | 5.2 | 0.00 | 0.00 | 0.00 | 67 | 1006.3 |
| 20260504050008 | 60 | 158 | 3.5 | 11.3 | 0.00 | 0.00 | 0.00 | 40 | 1006.0 |
| 20260504044514 | 61 | 154 | 6.1 | 10.4 | 0.00 | 0.00 | 0.00 | 38 | 1005.9 |
| 20260504043007 | 61 | 122 | 3.5 | 14.8 | 0.00 | 0.00 | 0.00 | 39 | 1005.7 |
| 20260504041506 | 60 | 93 | 5.2 | 13.0 | 0.00 | 0.00 | 0.00 | 39 | 1005.6 |